Regional Weather Roundup
Issued by NWS

Home | Current Version | Previous Version | Text Only | Print | Product List | Glossary On
Versions: 1 2 3 4 5 6 7 8 9 10 11 12 13 14 15 16 17 18 19 20 21 22 23 24 25 26 27 28 29 30 31 32 33 34 35 36 37 38 39 40 41 42 43 44 45 46 47 48 49 50
000
ASUS43 KDTX 221110
RWRMI
MICHIGAN HOURLY REGIONAL WEATHER ROUNDUP
NATIONAL WEATHER SERVICE DETROIT/PONTIAC MI
600 AM EST MON JAN 22 2018

NOTE: "FAIR" INDICATES FEW OR NO CLOUDS BELOW 12,000 FEET WITH NO
SIGNIFICANT WEATHER AND/OR OBSTRUCTION TO VISIBILITY.

MIZ047>049-052>055-059>063-066>070-074>076-081>083-221200-
SOUTHEAST LOWER MICHIGAN

CITY           SKY/WX    TMP DP  RH WIND       PRES   REMARKS
ADRIAN         LGT RAIN  38  38 100 E7        29.86F VSB 1/2 WCI  33
ALMA           CLOUDY    36  36 100 NE15      29.88F FOG     WCI  26
ANN ARBOR      LGT RAIN  39  39 100 NE6       29.87F FOG     WCI  35
BAD AXE        MIX PCPN  34  34  99 E8        29.96F WCI  27
CARO           CLOUDY    36  35  98 E8        29.93S FOG     WCI  29
DETROIT CITY   LGT RAIN  37  37 100 E5        29.91F FOG     WCI  33
DETROIT        LGT RAIN  40  39  97 NE6       29.89F VSB 1/2
FLINT          MIX PCPN  37  36  96 E9        29.90F FOG     WCI  30
GROSSE ILE     LGT RAIN  43  43  99 E5        29.88F VSB 1/2
HILLSDALE      FOG       45  43  93 SE8       29.82F VSB 1/2
HOWELL         RAIN      39  39 100 E6        29.86F WCI  34

CITY           SKY/WX    TMP DP  RH WIND       PRES   REMARKS
JACKSON        CLOUDY    40  40 100 NE6       29.83F FOG
LAMBERTVILLE   FOG       43  43  97 E5        29.86F VSB 1/2
LANSING        RAIN      38  38 100 E6        29.85F FOG     WCI  33
LAPEER         LGT RAIN  36  36 100 E5        29.91F WCI  32
MASON          LGT RAIN  41  37  87 SE3       29.84F
MONROE         LGT RAIN  40  38  93 SE5       29.87F VSB 1/2
MT. CLEMENS    CLOUDY   N/A N/A N/A NE5         N/A
PONTIAC        LGT RAIN  37  37 100 E7        29.88F FOG     WCI  32
PORT HOPE        N/A     33  32  96 E10       29.97S WCI  25
PORT HURON     LGT RAIN  36  34  93 NE3       29.95S
TRI CITIES     CLOUDY    36  36 100 E14       29.92F FOG     WCI  27
MIDLAND        MIX PCPN  36  35  97 NE9       29.92F WCI  29
TROY           LGT RAIN  37  36  98 NE6       29.92F WCI  32
SAGINAW HB     CLOUDY    34  34 100 E10       29.91F FOG     WCI  26
$$
MIZ043>046-050>051-056>058-064>065-071>073-077>080-221200-
SOUTHWEST LOWER MICHIGAN

CITY           SKY/WX    TMP DP  RH WIND       PRES   REMARKS
BATTLE CREEK   LGT RAIN  43  43 100 E6        29.80F FOG
BENTON HARBOR  LGT RAIN  48  46  93 SE8       29.73F
BIG RAPIDS     CLOUDY    36  35  94 E13       29.85F FOG     WCI  28
COLDWATER      CLOUDY    46  46 100 SE8       29.80F FOG
FREMONT        CLOUDY    37  36  93 E12       29.81F FOG     WCI  30
HOLLAND        LGT RAIN  39  37  92 E12       29.77F FOG     WCI  32
GRAND RAPIDS   LGT RAIN  37  36  96 NE10      29.81F FOG     WCI  30
IONIA          LGT RAIN  37  37 100 NE9       29.83F WCI  30
KALAMAZOO      LGT RAIN  47  45  93 SE5       29.79F FOG
LUDINGTON      RAIN      37  37 100 E10       29.82F WCI  30
MARSHALL       LGT RAIN  43  42  98 E7        29.81F
MOUNT PLEASANT CLOUDY    37  36  96 NE12      29.89F FOG     WCI  29
MUSKEGON       CLOUDY    39  36  89 E13       29.80F FOG     WCI  31
SOUTH HAVEN    CLOUDY    45  44  96 E6        29.74F FOG
$$
MIZ016>042-221200-
NORTHERN LOWER MICHIGAN

CITY           SKY/WX    TMP DP  RH WIND       PRES   REMARKS
ALPENA         CLOUDY    34  34 100 E12       30.02S FOG     WCI  25
BEAVER ISLAND  FOG       34  33  99 E14G20    29.98F VSB 3/4 WCI  24
BELLAIRE       CLOUDY    36  33  90 NE6       29.94F WCI  31
CADILLAC       LGT SNOW  35  34  99 E15       29.85F WCI  25
CHARLEVOIX     CLOUDY    34  34 100 E12       29.98F FOG     WCI  25
FRANKFORT      LGT RAIN  37  35  90 NE6       29.88F WCI  33
GAYLORD        FOG       31  31 100 E8        29.94F VSB 3/4 WCI  23
GRAYLING       CLOUDY    34  32  93 E12       29.94S FOG     WCI  25
HARBOR SPRINGS CLOUDY    34  33  98 E12       29.98F FOG     WCI  25
HOUGHTON LAKE  CLOUDY    35  33  92 E10       29.91F FOG     WCI  27
MANISTEE       LGT RAIN  37  36  93 E8        29.84F FOG     WCI  31
OSCODA         FOG       34  33  99 NE8       29.98F VSB 1/4 WCI  27
PELLSTON       FOG       34  34 100 E13G22    30.00F VSB 3/4 WCI  25
ROGERS CITY    CLOUDY    33  33  98 E14       30.04S FOG     WCI  23
TRAVERSE CITY  CLOUDY    37  32  82 NE7       29.90F WCI  32
$$
MIZ007>008-015-221200-
EASTERN UPPER MICHIGAN

CITY           SKY/WX    TMP DP  RH WIND       PRES   REMARKS
KINROSS        CLOUDY    29  24  82 E17       30.05S WCI  17
MACKINAC ISLAN CLOUDY    32  32 100 E16G24    30.02S WCI  21
NEWBERRY       CLOUDY    30  29  97 NE10      30.01F WCI  21
S. S. MARIE    CLOUDY    31  22  69 E8        30.05F WCI  23
MUNISING         N/A     32  31  96 NE13      30.02S WCI  22
$$
MIZ004>006-011>014-085-221200-
CENTRAL UPPER MICHIGAN

CITY           SKY/WX    TMP DP  RH WIND       PRES   REMARKS
MANISTIQUE     CLOUDY    32  32 100 E9        30.01R WCI  24
ESCANABA       CLOUDY    34  31  88 NE8       29.98F WCI  27
MENOMINEE      MIX PCPN  33  31  92 NE22G28   29.92F FOG     WCI  21
SAWYER-GWINN   CLOUDY    29  28  96 NE9       29.99S FOG     WCI  21
$$
MIZ001>003-009>011-084-221200-
WESTERN UPPER MICHIGAN

CITY           SKY/WX    TMP DP  RH WIND       PRES   REMARKS
IRON MOUNTAIN  CLOUDY    31  28  89 NE6       29.94F WCI  25
HOUGHTON       CLOUDY    27  22  81 NE8       30.04F WCI  19
COPPER HARBOR    N/A     28  23  81 E9G17     30.09F WCI  19
IRONWOOD       FLURRIES  28  26  92 E10       29.98F WCI  19
$$

ABBREVIATIONS USED IN REMARKS
   TC - TEMPERATURE IN CELSIUS
  WCI - WIND CHILL INDEX
   HX - HEAT INDEX
  VSB - VISIBILITY





USA.gov is the U.S. government's official web portal to all federal, state and local government web resources and services.